Preview of NWS' New Version of Forecast
This preview is not operational and should not be used for support decisions.

Regional Weather Roundup (RWR)

Issued by National Weather Service (NWS)

                            
000
ASUS45 KCYS 181710
RWRWY 

WYOMING REGIONAL WEATHER ROUNDUP
NATIONAL WEATHER SERVICE CHEYENNE WY
1100 AM MDT THU APR 18 2019

NOTE:  "FAIR" INDICATES FEW OR NO CLOUDS BELOW 12,000 FEET
WITH NO SIGNIFICANT WEATHER AND/OR OBSTRUCTIONS TO VISIBILITY.

WYZ001-181800-
YELLOWSTONE NATIONAL PARK
  
CITY           SKY/WX    TMP DP  RH WIND       PRES   REMARKS
LK YELLOWSTONE   N/A     35  24  64 VRB3      30.38                   
W YELLOWSTONE  NOT AVBL                                               

$$
WYZ002>013-054>058-071-098>099-181800-
NORTHERN WYOMING
  
CITY           SKY/WX    TMP DP  RH WIND       PRES   REMARKS
JACKSON        FAIR      43  30  60 N9        30.35S                  
CODY           FAIR      52  22  30 N7        30.25F                  
GREYBULL       FAIR      56  25  30 NW12G21   30.23S                  
WORLAND        FAIR      57  25  29 NW18      30.25S                  
SHERIDAN       FAIR      57  26  30 N22G29    30.21S                  
BUFFALO        FAIR      52  25  35 N29G40    30.19R                  
GILLETTE       FAIR      52  28  39 NW25G35   30.16S                  
HULETT         PTSUNNY   50  30  46 NW16G23   30.16S                  
NEWCASTLE      FAIR      50  23  34 NW24G33   30.15R                  

$$
WYZ014>020-022>026-101>103-181800-
CENTRAL WYOMING
  
CITY           SKY/WX    TMP DP  RH WIND       PRES   REMARKS
BIG PINEY      FAIR      53  22  29 N12G21    30.32S                  
PINEDALE       FAIR      46  25  42 W22       30.32R                  
DUBOIS         FAIR      48  19  32 NW20G29   30.29R                  
LANDER         FAIR      50  25  37 SE9G18    30.27S                  
RIVERTON       FAIR      49  22  34 NE6       30.29R                  
CASPER         FAIR      51  24  34 NW22G36   30.23F                  
DOUGLAS        PTSUNNY   51  29  42 NW24G35   30.21R                  

$$
WYZ021-027>030-104>119-181800-
SOUTHERN WYOMING
  
CITY           SKY/WX    TMP DP  RH WIND       PRES   REMARKS
EVANSTON       FAIR      45  25  45 W10       30.40R                  
KEMMERER       FAIR      45  28  53 W15G21    30.38R                  
ROCK SPRINGS   FAIR      49  29  46 W17G24    30.33S                  
DIXON          FAIR      47  27  45 SW6       30.36R                  
RAWLINS        FAIR      45  23  42 W8G20     30.32R                  
SARATOGA       FAIR      45  23  42 NW5       30.32R                  
LARAMIE        PTSUNNY   42  23  46 NW24G37   30.25R                  
CHEYENNE       CLOUDY    42  32  67 N13G23    30.21S                  
TORRINGTON     CLOUDY    52  28  39 NW23G31   30.16S                  
PINE BLUFFS    FAIR      46  28  49 N33G44    30.19S                  

$$